COSMOS 2487             
1 39194U 13032A   19267.19804156  .00002754  00000-0  71090-4 0  9993
2 39194  74.7103 237.8270 0003694 231.1076 128.9806 15.39644304348920
SL-27 R/B               
1 39195U 13032B   19267.11148567  .00000417  00000-0  15085-4 0  9999
2 39195  74.7285 258.8873 0002782 289.0077  71.0829 15.31864353348343